OpenBCM V2.0.3 (Linux)

Packet Radio Mailbox

IZ3LSV

[San Dona' di P. JN]

 Login: GUEST





  
LU1HVK > KEP      04.10.19 07:26l 250 Lines 12368 Bytes #999 (0) @ WW
BID : 32794_LU1HVK
Read: GUEST
Subj: TLE 04 10
Path: IZ3LSV<I0OJJ<VE3UIL<VA7RBP<N7HPX<WH6FQE<N3HYM<LU3DVN<LU3WAM<LU9HGS<
      LU1HVK
Sent: 191004/0523Z 32794@LU1HVK.2594.CBA.ARG.SA LinBPQ6.0.19

>From lu1hvk%lu1hvk.2594.cba.arg.sa@i0ojj.ampr.org Fri Oct  4 07:26:14 2019
Received: from i0ojj.ampr.org by i0ojj.ampr.org (JNOS2.0k.3b2) with SMTP
	id AA28044 ; Fri, 04 Oct 2019 07:26:14 +0200
Message-Id: <32794_LU1HVK@ve3uil.bbs>
>From: lu1hvk@lu1hvk.2594.cba.arg.sa
X-JNOS-User-Port: Telnet   (ve3uil @ 44.134.32.240)  -> Sending message

                         _    _   _ _ _   ___     ___  __
                        | |  | | | / | | | \ \   / / |/ /
                        | |  | | | | | |_| |\ \ / /| ' /
                        | |__| |_| | |  _  | \ V / | . \
                        |_____\___/|_|_| |_|  \_/  |_|\_\

     BBS/NODO - CORDOBA (LEONES-FF87UH) - LU1HVK-4 NODO - LU1HVK-3 APRS

+----------------------------------------------------------------------------+
OSCAR 7
1  7530U 74089B   19276.87786015 -.00000036 +00000-0 +54632-4 0  9994
2  7530 101.7579 243.4889 0012269 138.6846 275.6867 12.53640052053716
OSCAR 11 (UoSAT 2)
1 14781U 84021B   19276.83911964 +.00000071 +00000-0 +14771-4 0  9994
2 14781 097.6060 296.4592 0007782 337.5035 022.5838 14.83109622893642
OSCAR 19 (LUSAT)
1 20442U 90005G   19276.85349830 +.00000008 +00000-0 +19243-4 0  9992
2 20442 098.6566 218.7122 0011464 188.3358 171.7637 14.32933877551661
EYESAT A
1 22825U 93061C   19276.89852146 -.00000021 +00000-0 +98957-5 0  9993
2 22825 098.9122 268.0251 0009257 051.3759 308.8250 14.30067504357000
ITAMSAT
1 22826U 93061D   19276.94515094 -.00000015 +00000-0 +12233-4 0  9993
2 22826 098.9062 268.0507 0009638 040.6292 319.5608 14.30401587357238
RADIO ROSTO
1 23439U 94085A   19276.83151483 -.00000052 +00000-0 -26607-3 0  9998
2 23439 064.8159 302.8673 0145276 092.3707 269.3858 11.27568147019977
JAS 2
1 24278U 96046B   19276.91657941 -.00000035 +00000-0 +26985-5 0  9999
2 24278 098.5540 055.8534 0349653 322.1758 035.5269 13.53093544142053
TECHSAT 1B
1 25397U 98043D   19276.86803003 -.00000002 +00000-0 +18510-4 0  9995
2 25397 098.6957 215.7460 0002399 086.5196 273.6257 14.23671496102902
ISS (ZARYA)
1 25544U 98067A   19277.04831019  .00099829  00000-0  17218-2 0  9990
2 25544  51.6408 181.4187 0007235 113.7261  73.1493 15.50194035192141
PCSAT
1 26931U 01043C   19276.88868666 -.00000035 +00000-0 +18252-4 0  9991
2 26931 067.0500 087.0574 0007429 269.4812 090.5438 14.30554026940233
SAUDISAT 1C
1 27607U 02058C   19276.90117893 -.00000011 +00000-0 +19338-4 0  9991
2 27607 064.5542 081.8134 0075857 235.6865 123.7042 14.75575448902721
CUTE-1
1 27844U 03031E   19276.94268073 +.00000041 +00000-0 +38075-4 0  9998
2 27844 098.6856 283.5574 0010956 081.9180 278.3240 14.22197303843497
CUBESAT XI 4
1 27848U 03031J   19276.82466756 +.00000023 +00000-0 +30313-4 0  9994
2 27848 098.6931 283.9634 0010874 092.6768 267.5654 14.21789971843335
MOZHAYETS 4
1 27939U 03042A   19276.94371006 +.00000097 +00000-0 +25926-4 0  9998
2 27939 098.0573 050.7633 0014217 088.9640 271.3188 14.66806800856264
CUBESAT XI 5
1 28895U 05043F   19276.83647500  .00000124  00000-0  32673-4 0  9994
2 28895  97.9749  55.9904 0017090  18.1403 342.0406 14.63695511743155
CUTE-1.7+APD II
1 32785U 08021C   19276.78450691 +.00000199 +00000-0 +27100-4 0  9994
2 32785 097.5556 271.4785 0011495 267.9640 092.0261 14.88351687619548
DELFI C3
1 32789U 08021G   19276.84923277 +.00000815 +00000-0 +58127-4 0  9998
2 32789 097.4541 323.2314 0013739 116.2246 244.0396 15.07145747623004
SEEDS
1 32791U 08021J   19276.55515443  .00000409  00000-0  46855-4 0  9995
2 32791  97.5315 277.3313 0011979 238.8080 121.1965 14.90878529620035
YUBELEINY
1 32953U 08025A   19276.84904988  .00000020  00000-0  75656-4 0  9997
2 32953  82.4981  78.1159 0018681 255.2615 104.6393 12.43091358515628
PRISM (HITOMI)
1 33493U 09002B   19276.76385078 +.00000320 +00000-0 +33508-4 0  9990
2 33493 098.1217 201.7789 0014555 183.1024 177.0108 14.96751661581155
KKS-1 (KISEKI)
1 33499U 09002H   19276.89247533 +.00000082 +00000-0 +20051-4 0  9997
2 33499 098.3426 118.9875 0008247 219.6647 140.3958 14.75466096574607
SWISSCUBE
1 35932U 09051B   19276.91784556 +.00000125 +00000-0 +39379-4 0  9990
2 35932 098.5982 086.0986 0007400 188.6121 171.4950 14.56314139532341
BEESAT
1 35933U 09051C   19276.91438602 +.00000104 +00000-0 +34486-4 0  9990
2 35933 098.6000 087.8983 0005354 199.7167 160.3823 14.56399536532417
ITUPSAT 1
1 35935U 09051E   19276.89652953 +.00000062 +00000-0 +25363-4 0  9993
2 35935 098.6111 088.1096 0007683 200.3776 159.7114 14.55555276532209
XIWANG-1 (HOPE-1)
1 36122U 09072B   19276.75028926 -.00000020 +00000-0 +57516-4 0  9997
2 36122 100.0775 274.1147 0008002 097.3053 262.8959 13.16351552470968
TISAT 1
1 36799U 10035E   19276.91467767 +.00000505 +00000-0 +56967-4 0  9992
2 36799 098.1698 072.7168 0013593 094.3606 265.9164 14.91167131500548
JUGNU
1 37839U 11058B   19276.68972479  .00000329  00000-0  33520-4 0  9993
2 37839  19.9621  45.9219 0019086  66.5054  58.2532 14.12660255412408
SRMSAT
1 37841U 11058D   19276.89550091 +.00000303 +00000-0 +21236-4 0  9994
2 37841 019.9720 103.6674 0011805 294.6715 205.4008 14.10640294411757
M-CUBED/EXP-1 PRIME
1 37855U 11061F   19276.93068055 +.00001101 +00000-0 +62546-4 0  9998
2 37855 101.7145 227.5791 0173044 118.8060 243.0650 15.05612439432448
HORYU 2
1 38340U 12025D   19276.70500187  .00000144  00000-0  29087-4 0  9990
2 38340  98.3193 318.4528 0012420 138.9280 221.2866 14.75754523396945
STRAND 1
1 39090U 13009E   19276.80941663 +.00000019 +00000-0 +21950-4 0  9997
2 39090 098.4784 120.9249 0008744 337.8467 022.2340 14.35099108345736
SOMP
1 39134U 13015E   19276.71852621  .00001399  00000-0  72421-4 0  9999
2 39134  64.8645  33.6405 0036242 285.8183  73.8949 15.20361196356860
BEESAT 3
1 39135U 13015F   19276.83146727 +.00000992 +00000-0 +58352-4 0  9991
2 39135 064.8688 053.0930 0035246 294.7526 064.9934 15.17627840356110
BEESAT 2
1 39136U 13015G   19276.84337389 +.00000902 +00000-0 +55071-4 0  9995
2 39136 064.8694 057.1844 0027019 300.3120 059.5333 15.17046874356036
CUBEBUG 1
1 39153U 13018D   19276.81318648  .00000207  00000-0  33887-4 0  9990
2 39153  97.9808  14.3513 0016357 207.1866 152.8491 14.80601553347662
ZACUBE
1 39417U 13066B   19276.91866592 +.00000211 +00000-0 +32764-4 0  9991
2 39417 097.5629 284.3949 0059982 043.5609 317.0319 14.81154986316914
TRITON 1
1 39427U 13066M   19276.88751569 +.00000168 +00000-0 +34747-4 0  9999
2 39427 097.6893 247.7129 0113629 181.5541 178.5329 14.67884621313872
GOMX 1
1 39430U 13066Q   19276.93224089 +.00000183 +00000-0 +42598-4 0  9991
2 39430 097.7569 226.4787 0149960 276.3983 082.0162 14.59291526312242
HUMSAT D
1 39433U 13066T   19276.70178837 +.00000187 +00000-0 +23557-4 0  9996
2 39433 097.5432 319.7769 0029411 305.2454 054.6014 14.92260872317851
CUBEBUG 2
1 39440U 13066AA  19276.93989307 +.00000203 +00000-0 +35008-4 0  9994
2 39440 097.6091 269.0803 0081712 096.4280 264.6243 14.75891925314590
FUNCUBE 1
1 39444U 13066AE  19276.92729182 +.00000264 +00000-0 +38610-4 0  9999
2 39444 097.5601 286.4500 0058981 037.0598 323.4667 14.81982097315225
UWE-3
1 39446U 13066AG  19276.89568411 +.00000208 +00000-0 +34024-4 0  9996
2 39446 097.5852 276.1682 0071471 070.6463 290.2458 14.78427234314518
SPROUT
1 39770U 14029E   19276.86525563 +.00000794 +00000-0 +93724-4 0  9996
2 39770 097.8885 019.4912 0010056 093.0363 267.1985 14.87442881290764
UNISAT 6
1 40012U 14033C   19276.93277605 +.00000152 +00000-0 +29867-4 0  9996
2 40012 097.7418 138.8442 0059606 111.2360 249.5229 14.74012508284486
DUCHIFAT 1
1 40021U 14033M   19276.74389568  .00000523  00000-0  59150-4 0  9997
2 40021  97.9238 201.6924 0014248  59.8043 300.4584 14.90693674287492
QB50P1
1 40025U 14033R   19276.82028354 +.00000259 +00000-0 +33537-4 0  9990
2 40025 097.9033 196.3194 0013843 069.0940 291.1757 14.88990495286751
CHUBUSAT 1
1 40300U 14070C   19276.82392669  .00000781  00000-0  36846-4 0  9996
2 40300  97.3189 348.2554 0021098  40.8127  93.2248 15.22189576272318
NUDT-PHONESAT
1 40900U 15049B   19276.93596700 +.00002427 +00000-0 +10578-3 0  9995
2 40900 097.4376 285.2372 0012816 161.0023 267.6246 15.23094960223987
ZDPS 2A
1 40901U 15049C   19276.94023734 +.00001053 +00000-0 +55241-4 0  9990
2 40901 097.4614 281.2288 0013136 183.1928 263.6829 15.17855522223503
ZDPS 2B
1 40902U 15049D   19276.91123035 +.00001244 +00000-0 +64919-4 0  9997
2 40902 097.4567 278.6100 0013205 181.0009 265.5700 15.17713904223470
XW-2A
1 40903U 15049E   19276.91727626 +.00002388 +00000-0 +57584-4 0  9994
2 40903 097.3269 320.2412 0014966 113.8825 329.4810 15.42146554226770
KAITUO 1A
1 40904U 15049F   19276.96102345 +.00000300 +00000-0 +19315-4 0  9997
2 40904 097.4702 277.1551 0014031 190.8159 223.4577 15.15446271223247
OBJECT G
1 40905U 15049G   19276.92036433 +.00000679 +00000-0 +40535-4 0  9995
2 40905 097.4751 274.5552 0015233 186.4408 232.6539 15.14355692223107
XW-2C
1 40906U 15049H   19276.94089689 +.00000681 +00000-0 +39096-4 0  9992
2 40906 097.4712 277.2662 0014314 181.3712 239.8097 15.15767868223244
XW-2D
1 40907U 15049J   19276.90984316 +.00000654 +00000-0 +37481-4 0  9996
2 40907 097.4688 276.9161 0014068 178.8716 268.6451 15.15963405223258
LILACSAT 2
1 40908U 15049K   19276.93390786 +.00000574 +00000-0 +35304-4 0  9995
2 40908 097.4829 275.6493 0015366 186.7757 232.5896 15.13859240223033
XW-2F
1 40910U 15049M   19276.96114509 +.00000946 +00000-0 +50527-4 0  9995
2 40910 097.4654 279.1275 0014799 170.9005 244.1377 15.17443459223284
XW-2B
1 40911U 15049N   19276.74930953  .00000696  00000-0  39743-4 0  9990
2 40911  97.4713 277.4256 0013720 179.6091 267.0802 15.15891422223120
KAITUO 1B
1 40912U 15049P   19276.96217429 +.00001185 +00000-0 +58463-4 0  9995
2 40912 097.4510 282.9391 0015421 152.8782 272.4721 15.19774014223601
